Regional Weather Roundup
Issued by NWS

Home | Current Version | Previous Version | Text Only | Print | Product List | Glossary Off
Versions: 1 2 3 4 5 6 7 8 9 10 11 12 13 14 15 16 17 18 19 20 21 22 23 24 25 26 27 28 29 30 31 32 33 34 35 36 37 38 39 40 41 42 43 44 45 46 47 48 49 50

000
ASUS45 KTFX 292010
RWRMT
MONTANA REGIONAL WEATHER ROUNDUP
NATIONAL WEATHER SERVICE GREAT FALLS MT
200 PM MDT MON MAY 29 2017

NOTE: "FAIR" INDICATES FEW OR NO CLOUDS BELOW 12000 FEET WITH NO
SIGNIFICANT WEATHER AND/OR OBSTRUCTIONS TO VISIBILITY.

MTZ001>007-043-292100-
WEST OF THE DIVIDE

CITY           SKY/WX    TMP DP  RH WIND       PRES   REMARKS
KALISPELL      SUNNY     77  47  34 CALM      30.09F
MISSOULA       SUNNY     80  41  24 NW3       30.10F
BUTTE          MOSUNNY   71  28  20 VRB7      30.22F
MULLAN PASS    MOSUNNY   67  34  29 CALM      30.23F
ANACONDA         N/A     72  28  20 E5        30.18F
DEER LODGE       N/A     73  28  19 E3        30.20F
EUREKA           N/A     79  46  31 S5        30.07F
HAMILTON         N/A     77  39  25 CALM      30.11F
PLAINS           N/A     81  53  37 CALM      30.06F
RONAN            N/A     78  43  28 N6        30.14F
$$

MTZ008-052>055-292100-
SOUTHWEST MONTANA

CITY           SKY/WX    TMP DP  RH WIND       PRES   REMARKS
BOZEMAN        SUNNY     72  40  31 CALM      30.20F
DILLON         SUNNY     70  37  29 VRB3      30.20F
ENNIS          SUNNY     70  34  26 N8        30.26F
THREE FORKS      N/A     72  39  30 CALM      30.17F
TWIN BRIDGES     N/A     72  33  23 SW6       30.16F
$$

MTZ009-010-012-014-046-048-049-054-292100-
EAST SLOPES AND CENTRAL MONTANA

CITY           SKY/WX    TMP DP  RH WIND       PRES   REMARKS
CUT BANK       SUNNY     73  40  30 E9        30.15F
GREAT FALLS    SUNNY     72  41  32 VRB3      30.15F
MALMSTROM AFB  SUNNY     71  47  41 CALM      30.16F
HELENA         SUNNY     77  40  26 N5        30.15F
CHOTEAU          N/A     72  45  37 CALM      30.17F
CONRAD           N/A     74  52  46 E5        30.17F
$$

MTZ011-013-016-021-045-047-050-051-292100-
NORTH CENTRAL MONTANA

CITY           SKY/WX    TMP DP  RH WIND       PRES   REMARKS
HAVRE          SUNNY     71  30  21 VRB5      30.17F
LEWISTOWN      PTSUNNY   67  40  37 CALM      30.21F
N BAR RANCH      N/A     66  39  37 N10G17    30.24S
CHINOOK          N/A     70  28  21 NW6       30.17F
FORT BENTON      N/A     73  39  29 MISG      30.16F
$$

MTZ017>020-022>027-061-062-292100-
NORTHEAST MONTANA

CITY           SKY/WX    TMP DP  RH WIND       PRES   REMARKS
GLASGOW        SUNNY     67  32  27 W15G26    30.16F
JORDAN           N/A     70  24  17 NW13G21   30.17F
SIDNEY         MOSUNNY   65  32  29 NW18G25   30.11F
WOLF POINT     SUNNY     70  29  21 N14       30.13F
MALTA          SUNNY     70  30  23 N13G18    30.16F
PLENTYWOOD       N/A     63  30  29 NW18G32   30.10R
POPLAR           N/A     64  30  27 NW15      30.13F
SCOBEY           N/A     63  29  27 NW18      30.12F
$$

MTZ028>42-056>058-292100-
SOUTHCENTRAL AND SOUTHEAST MONTANA

CITY           SKY/WX    TMP DP  RH WIND       PRES   REMARKS
BAKER          MOSUNNY   64  32  30 N20G36    30.14F
BILLINGS       MOSUNNY   72  37  28 NW12G18   30.20F
LIVINGSTON     SUNNY     72  38  29 VRB6      30.21F
MILES CITY     SUNNY     70  24  17 NW18G24   30.15F
BIG TIMBER     SUNNY     68  37  32 CALM      30.24F
EKALAKA          N/A     61  31  32 W10       30.13F
FORSYTH          N/A     68  27  21 W13G20    30.17F
LAUREL           N/A     71  37  28 N10       30.17F
ROUNDUP          N/A     71  35  26 NW9       30.09F
$$

REGIONAL REPORTS...DAKOTAS

CITY           SKY/WX    TMP DP  RH WIND       PRES   REMARKS
WILLISTON      PTSUNNY   67  33  28 NW21G28   30.09F
MINOT          CLOUDY    63  38  39 NW22G29   29.99S
DICKINSON      MOSUNNY   63  29  27 NW20G31   30.07F
BEACH            N/A     63  32  31 NW22      30.15F
CROSBY         PTSUNNY   61  32  33 N22G32    30.07S
TIOGA          CLOUDY    59  34  38 NW20G26   30.08S
WATFORD CITY     N/A     63  34  34 N21       30.07F
BISMARCK       CLOUDY    62  36  37 NW15G25   30.03F
GRAND FORKS    PTSUNNY   60  49  66 NW15      29.87S
FARGO          CLOUDY    59  46  62 NW22G30   29.89R
BUFFALO SD       N/A     65  33  30 NW30G36   30.07F
RAPID CITY     SUNNY     69  29  22 N20G31    30.13F
$$

REGIONAL REPORTS...WYOMING/IDAHO/WASHINGTON

CITY           SKY/WX    TMP DP  RH WIND       PRES   REMARKS
GILLETTE       SUNNY     66  33  29 N16G32    30.19F
SHERIDAN       SUNNY     68  39  34 NW20G26   30.21F
BUFFALO WY     SUNNY     65  36  34 N29G37    30.22F
CODY           SUNNY     66  36  32 VRB6      30.25F
YELLOWSTONE LA   N/A     58  29  33 VRB3      30.35F
IDAHO FALLS    MOSUNNY   75  35  23 VRB5      30.19F
SALMON         SUNNY     75  43  31 N3        30.09F
BOISE          SUNNY     84  39  20 CALM      30.06F
SPOKANE        MOSUNNY   84  45  25 NE8       30.04F
$$

REGIONAL REPORTS...ALBERTA

CITY           SKY/WX    TMP DP  RH WIND       PRES   REMARKS
EDMONTON       SUNNY     68  36  30 S6        30.17F
CALGARY        MOSUNNY   70  37  30 SE13G20   30.15F
LETHBRIDGE     MOSUNNY   73  43  33 SE9       30.12F
MEDICINE HAT   SUNNY     70  32  24 VRB5      30.16F
WATERTON GATE    N/A     66  41  39 N9G23       N/A
CARDSTON         N/A     77  45  31 E3          N/A
MILK RIVER       N/A     73  41  31 E8          N/A
$$

REGIONAL REPORTS...SASKATCHEWAN

CITY           SKY/WX    TMP DP  RH WIND       PRES   REMARKS
SWIFT CURRENT  SUNNY     64  28  25 N15G24    30.17F
REGINA         MOSUNNY   64  28  25 NW24G37   30.08F
SASKATOON      MOSUNNY   66  23  19 N22G29    30.14F
CYPRESS HILLS    N/A     59  27  29 NE5         N/A
VAL MARIE        N/A     66  30  26 N10G18      N/A
ROCKGLEN         N/A     61  30  31 N16G25      N/A
ASSINIBOIA       N/A     68  30  24 E7          N/A
$$



USA.gov is the U.S. government's official web portal to all federal, state and local government web resources and services.